Language: 


Des rapports , des résumés tant et plus, au choix de chacun....


Données Historiques de Météogheer
Journalier Rapport pour Février 10, 2018 Unitée:  Impériale    Métrique   Les deux
Suivant Jour »
Journalier Hebdomadaire Mensuel Annuel Sur mesure
  Max: Min: Moyenne:
Température: 46.2 °F 31.8 °F 38.7 °F
Point de rosée: 37.4 °F 30.2 °F 35.1 °F
Humidité: 98% 62% 86%
Vent: 17.7mph 0mph 5mph
Rafales: 19.9mph - -
Vent- - WSW
Pression: 30.1 in 29.7 in -
Pluie: 0.2 in    
Historical Graphs
 
 
Données tabulaires pour Février 10, 2018
Heure Température Point de rosée Pression Vent Vent Rafales Humidité Pluie Taux (Horaire) Conditions
00:04 36.3 °F 37.4 °F 29.9 in West 4.3 mph 4.3 mph 98% 0.05 in
00:09 36.1 °F 37.4 °F 29.9 in West 4.3 mph 4.3 mph 98% 0.04 in
00:14 36 °F 35.6 °F 29.9 in West 4.3 mph 4.3 mph 98% 0.05 in
00:19 35.8 °F 35.6 °F 29.9 in West 4.3 mph 4.3 mph 98% 0.05 in
00:24 35.8 °F 35.6 °F 29.9 in West 4.3 mph 4.3 mph 98% 0.05 in
00:29 35.8 °F 35.6 °F 29.9 in West 4.3 mph 4.3 mph 98% 0.06 in
00:34 35.8 °F 35.6 °F 29.9 in West 4.3 mph 4.3 mph 98% 0.06 in
00:39 35.8 °F 35.6 °F 29.9 in West 4.3 mph 4.3 mph 98% 0.05 in
00:44 36 °F 35.6 °F 29.9 in West 4.3 mph 4.3 mph 98% 0.05 in
00:49 36.3 °F 37.4 °F 29.9 in West 4.3 mph 4.3 mph 98% 0.05 in
00:54 36.7 °F 37.4 °F 29.9 in West 4.3 mph 4.3 mph 98% 0.03 in
00:59 36.9 °F 37.4 °F 29.9 in West 4.3 mph 4.3 mph 98% 0.05 in
01:04 36.9 °F 37.4 °F 29.9 in West 4.3 mph 4.3 mph 98% 0.03 in
01:09 37 °F 37.4 °F 29.9 in West 4.3 mph 4.3 mph 98% 0.03 in
01:14 37 °F 37.4 °F 29.9 in West 4.3 mph 4.3 mph 98% 0.02 in
01:19 37 °F 37.4 °F 29.9 in West 4.3 mph 4.3 mph 98% 0.02 in
01:25 37.2 °F 37.4 °F 29.9 in West 4.3 mph 4.3 mph 98% 0.02 in
01:30 37.2 °F 37.4 °F 29.9 in West 4.3 mph 4.3 mph 98% 0.01 in
01:35 37 °F 37.4 °F 29.9 in West 4.3 mph 4.3 mph 98% 0.01 in
01:40 37 °F 37.4 °F 29.9 in West 4.3 mph 4.3 mph 98% 0.01 in
01:45 37 °F 37.4 °F 29.9 in West 4.3 mph 4.3 mph 98% 0.02 in
01:50 37.2 °F 37.4 °F 29.9 in West 4.3 mph 4.3 mph 98% 0.02 in
01:55 37.2 °F 37.4 °F 29.9 in West 4.3 mph 4.3 mph 98% 0.01 in
02:00 37.2 °F 37.4 °F 29.9 in West 4.3 mph 4.3 mph 98% 0.01 in
02:05 37.2 °F 37.4 °F 29.9 in West 4.3 mph 4.3 mph 98% 0.01 in
02:10 37.4 °F 37.4 °F 29.9 in West 4.3 mph 4.3 mph 98% 0.01 in
02:15 37.4 °F 37.4 °F 29.9 in West 4.3 mph 4.3 mph 98% 0.01 in
02:20 37.4 °F 37.4 °F 29.9 in West 4.3 mph 4.3 mph 98% 0.01 in
02:25 37.4 °F 37.4 °F 29.9 in West 4.3 mph 4.3 mph 97% 0.01 in
02:30 37.4 °F 37.4 °F 29.9 in West 4.3 mph 4.3 mph 97% 0.01 in
02:35 37.4 °F 37.4 °F 29.9 in West 4.3 mph 4.3 mph 97% 0.01 in
02:40 37.4 °F 37.4 °F 29.9 in West 4.3 mph 4.3 mph 97% 0.01 in
02:45 37.4 °F 37.4 °F 30 in West 4.3 mph 4.3 mph 97% 0 in
02:50 37.4 °F 37.4 °F 30 in West 4.3 mph 4.3 mph 97% 0 in
02:55 37.4 °F 37.4 °F 30 in West 4.3 mph 4.3 mph 97% 0 in
03:01 37.4 °F 37.4 °F 30 in West 4.3 mph 4.3 mph 96% 0 in
03:06 37.4 °F 37.4 °F 30 in West 4.3 mph 4.3 mph 96% 0 in
03:11 37.6 °F 37.4 °F 30 in West 4.3 mph 4.3 mph 96% 0 in
03:16 37.6 °F 37.4 °F 30 in West 4.3 mph 4.3 mph 96% 0 in
03:21 37.4 °F 37.4 °F 30 in West 4.3 mph 4.3 mph 95% 0 in
03:26 37.4 °F 37.4 °F 30 in West 4.3 mph 4.3 mph 95% 0 in
03:31 37.4 °F 37.4 °F 30 in West 4.3 mph 4.3 mph 95% 0 in
03:36 37.6 °F 37.4 °F 30 in West 4.3 mph 4.3 mph 95% 0.01 in
03:41 37.6 °F 37.4 °F 30 in West 4.3 mph 4.3 mph 95% 0.01 in
03:46 37.6 °F 35.6 °F 30 in West 4.3 mph 4.3 mph 94% 0.01 in
03:51 37.6 °F 35.6 °F 30 in West 4.3 mph 4.3 mph 94% 0.01 in
03:56 37.6 °F 35.6 °F 30 in West 4.3 mph 4.3 mph 94% 0.01 in
04:01 37.6 °F 35.6 °F 30 in West 4.3 mph 4.3 mph 94% 0.01 in
04:06 37.6 °F 35.6 °F 30 in West 4.3 mph 4.3 mph 93% 0.01 in
04:11 37.4 °F 35.6 °F 30 in West 4.3 mph 4.3 mph 92% 0.01 in
04:16 37 °F 35.6 °F 30 in West 4.3 mph 4.3 mph 92% 0.01 in
04:21 36.9 °F 35.6 °F 30 in WNW 2.7 mph 2.7 mph 92% 0.01 in
04:26 36.7 °F 35.6 °F 30 in WNW 2.7 mph 2.7 mph 92% 0.01 in
04:31 36.5 °F 35.6 °F 30 in West 4 mph 4 mph 92% 0.01 in
04:36 36.3 °F 33.8 °F 30 in Calm   4 mph 92% 0 in
04:41 36.3 °F 35.6 °F 30 in Calm   2.5 mph 93% 0 in
04:46 36.1 °F 35.6 °F 30 in West 3.8 mph 3.8 mph 93% 0 in
04:51 36.1 °F 35.6 °F 30 in West 3.8 mph 3.8 mph 93% 0 in
04:56 36 °F 33.8 °F 30 in West 2.7 mph 3.8 mph 93% 0 in
05:01 35.8 °F 33.8 °F 30 in West 3.1 mph 3.8 mph 93% 0 in
05:06 35.8 °F 33.8 °F 30 in WNW 3.1 mph 3.1 mph 93% 0 in
05:11 35.6 °F 33.8 °F 30 in WSW 3.4 mph 3.4 mph 93% 0 in
05:16 35.6 °F 33.8 °F 30 in West 2.9 mph 3.4 mph 93% 0 in
05:21 35.4 °F 33.8 °F 30 in West 2.9 mph 3.4 mph 94% 0 in
05:26 35.4 °F 33.8 °F 30 in West 3.4 mph 3.4 mph 94% 0 in
05:31 35.2 °F 33.8 °F 30 in West 1.3 mph 4.9 mph 94% 0 in
05:36 35.1 °F 33.8 °F 30 in West 2.5 mph 4.9 mph 94% 0 in
05:41 34.9 °F 33.8 °F 30 in West 2.7 mph 4.3 mph 94% 0 in
05:46 34.5 °F 33.8 °F 30 in SSW 2.2 mph 3.6 mph 93% 0 in
05:52 34.3 °F 33.8 °F 30 in Calm   2.7 mph 93% 0 in
05:57 34 °F 32 °F 30 in West 4.3 mph 4.3 mph 93% 0 in
06:02 34 °F 32 °F 30 in West 5.4 mph 5.4 mph 93% 0 in
06:07 33.8 °F 32 °F 30 in West 3.8 mph 6.3 mph 94% 0 in
06:12 33.8 °F 32 °F 30 in Calm   6.3 mph 94% 0 in
06:17 33.6 °F 32 °F 30 in Calm   4.3 mph 94% 0 in
06:22 33.4 °F 32 °F 30 in West 2.5 mph 4.3 mph 94% 0 in
06:27 33.1 °F 32 °F 30 in Calm   4 mph 94% 0 in
06:28 33.1 °F 32 °F 30 in Calm   4 mph 94% 0 in
06:33 32.7 °F 32 °F 30 in Calm   2.5 mph 94% 0 in
06:38 32.7 °F 32 °F 30 in Calm     94% 0 in
06:43 32.5 °F 32 °F 30 in Calm     94% 0 in
06:48 32.5 °F 32 °F 30 in Calm     95% 0 in
06:53 32.5 °F 32 °F 30 in Calm     95% 0 in
06:58 32.5 °F 32 °F 30 in Calm     95% 0 in
07:03 32.5 °F 32 °F 30 in Calm     96% 0 in
07:08 32.5 °F 32 °F 30 in Calm     96% 0 in
07:13 32.5 °F 32 °F 30 in Calm     96% 0 in
07:18 32.4 °F 32 °F 30 in West 3.6 mph 3.6 mph 96% 0 in
07:23 32.4 °F 32 °F 30 in West 4.7 mph 4.7 mph 96% 0 in
07:28 32.4 °F 32 °F 30 in WSW 4.5 mph 4.7 mph 97% 0 in
07:33 32.4 °F 32 °F 30 in Calm   4.7 mph 97% 0 in
07:38 32.2 °F 32 °F 30 in West 1.6 mph 4.5 mph 97% 0 in
07:43 32.2 °F 32 °F 30 in West 1.6 mph 1.6 mph 97% 0 in
07:48 32 °F 30.2 °F 30 in Calm   1.6 mph 97% 0 in
07:53 32 °F 30.2 °F 30 in Calm   1.6 mph 97% 0 in
07:58 32 °F 30.2 °F 30 in Calm     97% 0 in
08:04 31.8 °F 30.2 °F 30 in Calm     97% 0 in
08:09 31.8 °F 30.2 °F 30 in Calm     97% 0 in
08:14 31.8 °F 30.2 °F 30 in Calm     97% 0 in
08:19 31.8 °F 30.2 °F 30 in Calm     97% 0 in
08:24 31.8 °F 30.2 °F 30 in Calm     97% 0 in
08:29 31.8 °F 30.2 °F 30 in Calm     97% 0 in
08:34 31.8 °F 30.2 °F 30 in Calm     97% 0 in
08:39 31.8 °F 30.2 °F 30 in Calm     98% 0 in
08:44 32 °F 30.2 °F 30 in Calm     98% 0 in
08:49 32.4 °F 32 °F 30 in Calm     98% 0 in
08:51 32.4 °F 32 °F 30 in Calm     98% 0 in
08:56 32.5 °F 33.8 °F 30 in Calm     98% 0 in
09:01 32.7 °F 33.8 °F 30 in Calm     98% 0 in
09:06 32.7 °F 33.8 °F 30 in Calm     98% 0 in
09:11 32.9 °F 33.8 °F 30 in Calm     98% 0 in
09:16 33.1 °F 33.8 °F 30 in Calm     98% 0 in
09:21 33.3 °F 33.8 °F 30 in Calm     98% 0 in
09:26 33.8 °F 33.8 °F 30 in Calm     98% 0 in
09:31 34 °F 33.8 °F 30 in Calm     98% 0 in
09:36 34.3 °F 33.8 °F 30 in Calm     98% 0 in
09:41 34.7 °F 35.6 °F 30 in Calm     98% 0 in
09:46 34.9 °F 35.6 °F 30 in Calm     98% 0 in
09:51 35.2 °F 35.6 °F 30 in Calm     98% 0 in
09:56 35.6 °F 35.6 °F 30 in Calm     98% 0 in
10:01 35.8 °F 35.6 °F 30.1 in Calm     98% 0 in
10:06 36.1 °F 35.6 °F 30.1 in Calm     97% 0 in
10:11 36.3 °F 35.6 °F 30.1 in Calm     97% 0 in
10:16 36.9 °F 37.4 °F 30 in Calm     97% 0 in
10:22 37 °F 37.4 °F 30 in Calm     96% 0 in
10:27 37.4 °F 37.4 °F 30 in Calm     95% 0 in
10:32 37.9 °F 37.4 °F 30 in Calm     95% 0 in
10:37 38.5 °F 37.4 °F 30 in Calm     95% 0 in
10:42 38.8 °F 37.4 °F 30 in Calm     94% 0 in
10:47 39.2 °F 37.4 °F 30 in Calm     92% 0 in
10:52 39.6 °F 37.4 °F 30 in Calm     90% 0 in
10:57 39.9 °F 37.4 °F 30 in Calm     89% 0 in
11:02 40.1 °F 37.4 °F 30 in Calm     88% 0 in
11:07 40.5 °F 37.4 °F 30 in Calm     87% 0 in
11:12 40.6 °F 37.4 °F 30 in Calm     87% 0 in
11:17 41 °F 37.4 °F 30 in Calm     86% 0 in
11:22 41.5 °F 37.4 °F 30 in Calm     86% 0 in
11:27 41.7 °F 37.4 °F 30 in Calm     85% 0 in
11:32 41.9 °F 37.4 °F 30 in Calm     84% 0 in
11:37 42.3 °F 37.4 °F 30 in Calm     82% 0 in
11:42 42.3 °F 37.4 °F 30 in Calm     82% 0 in
11:47 42.8 °F 37.4 °F 30 in Calm     79% 0.01 in
11:52 42.8 °F 37.4 °F 30 in Calm     77% 0.01 in
11:57 43 °F 35.6 °F 30 in Calm     76% 0.01 in
12:02 43.3 °F 37.4 °F 30 in Calm     75% 0.01 in
12:07 43.5 °F 35.6 °F 30 in Calm     74% 0.01 in
12:12 43.7 °F 35.6 °F 30 in Calm     73% 0.01 in
12:17 44.1 °F 37.4 °F 30 in Calm     74% 0.01 in
12:22 44.2 °F 35.6 °F 30 in Calm     73% 0.01 in
12:27 44.4 °F 37.4 °F 30 in Calm     72% 0.01 in
12:32 44.8 °F 35.6 °F 30 in Calm     71% 0.01 in
12:37 44.8 °F 35.6 °F 30 in Calm     69% 0.01 in
12:43 45.1 °F 35.6 °F 30 in Calm     68% 0.01 in
12:48 45.5 °F 35.6 °F 30 in Calm     67% 0 in
12:53 45.9 °F 35.6 °F 30 in Calm     68% 0 in
12:58 45.7 °F 35.6 °F 30 in Calm     67% 0 in
13:03 45.9 °F 35.6 °F 30 in West 5.4 mph 5.4 mph 65% 0 in
13:08 45.3 °F 33.8 °F 30 in West 5.4 mph 5.4 mph 63% 0.01 in
13:13 45.1 °F 33.8 °F 30 in West 5.4 mph 5.4 mph 64% 0.01 in
13:18 45.5 °F 35.6 °F 30 in West 5.4 mph 5.4 mph 67% 0.01 in
13:23 46 °F 35.6 °F 30 in West 5.4 mph 5.4 mph 67% 0.01 in
13:28 45.9 °F 33.8 °F 30 in West 5.4 mph 5.4 mph 63% 0.01 in
13:33 46 °F 33.8 °F 30 in West 5.4 mph 5.4 mph 63% 0.01 in
13:38 46.2 °F 35.6 °F 30 in West 5.4 mph 5.4 mph 64% 0.01 in
13:43 46 °F 33.8 °F 30 in West 5.4 mph 5.4 mph 62% 0.01 in
13:49 45.9 °F 33.8 °F 30 in WSW 8.7 mph 8.7 mph 63% 0.01 in
13:54 45.7 °F 35.6 °F 30 in WSW 8.9 mph 10.3 mph 65% 0.01 in
13:59 46.2 °F 35.6 °F 30 in WSW 8.9 mph 10.3 mph 64% 0.03 in
14:04 45.9 °F 33.8 °F 30 in WSW 8.9 mph 8.9 mph 62% 0.03 in
14:09 46 °F 33.8 °F 30 in WSW 8.9 mph 8.9 mph 63% 0.01 in
14:14 45.9 °F 33.8 °F 30 in WSW 8.9 mph 8.9 mph 63% 0.01 in
14:19 46 °F 33.8 °F 30 in WSW 8.9 mph 8.9 mph 63% 0.01 in
14:24 46 °F 33.8 °F 30 in WSW 8.9 mph 8.9 mph 64% 0.01 in
14:29 45.7 °F 33.8 °F 29.9 in WSW 8.9 mph 8.9 mph 63% 0.01 in
14:34 45.9 °F 35.6 °F 29.9 in WSW 8.9 mph 8.9 mph 65% 0.01 in
14:39 45.5 °F 35.6 °F 29.9 in WSW 8.9 mph 8.9 mph 65% 0.01 in
14:44 45.1 °F 33.8 °F 30 in WSW 8.9 mph 8.9 mph 65% 0.01 in
14:49 44.8 °F 33.8 °F 30 in WSW 8.9 mph 8.9 mph 65% 0.01 in
14:54 44.6 °F 33.8 °F 30 in WSW 8.9 mph 8.9 mph 66% 0.01 in
14:59 44.2 °F 33.8 °F 29.9 in WSW 8.9 mph 8.9 mph 66% 0 in
15:04 44.2 °F 33.8 °F 29.9 in WSW 7.6 mph 7.6 mph 67% 0.01 in
15:09 45 °F 33.8 °F 29.9 in WSW 7.6 mph 7.6 mph 66% 0.01 in
15:14 45 °F 35.6 °F 29.9 in WSW 7.6 mph 7.6 mph 67% 0.01 in
15:19 44.8 °F 33.8 °F 29.9 in WSW 7.6 mph 7.6 mph 67% 0.01 in
15:24 45.1 °F 33.8 °F 29.9 in WSW 7.6 mph 7.6 mph 66% 0.01 in
15:29 45 °F 33.8 °F 29.9 in WSW 7.6 mph 7.6 mph 66% 0.01 in
15:34 44.6 °F 33.8 °F 29.9 in WSW 7.6 mph 7.6 mph 65% 0.01 in
15:40 44.2 °F 33.8 °F 29.9 in SW 7.8 mph 7.8 mph 67% 0.01 in
15:45 44.2 °F 33.8 °F 29.9 in SW 7.8 mph 7.8 mph 67% 0.01 in
15:50 44.4 °F 33.8 °F 29.9 in SW 7.8 mph 7.8 mph 67% 0.01 in
15:55 45 °F 33.8 °F 29.9 in SW 7.8 mph 7.8 mph 66% 0.01 in
16:00 44.8 °F 33.8 °F 29.9 in SW 7.8 mph 7.8 mph 64% 0.01 in
16:05 44.4 °F 33.8 °F 29.9 in SW 7.8 mph 7.8 mph 65% 0 in
16:10 44.1 °F 33.8 °F 29.9 in SW 7.8 mph 7.8 mph 64% 0 in
16:15 43.9 °F 33.8 °F 29.9 in SW 7.8 mph 7.8 mph 65% 0 in
16:20 43.9 °F 33.8 °F 29.9 in SW 7.8 mph 7.8 mph 64% 0 in
16:25 43.9 °F 33.8 °F 29.9 in SW 7.8 mph 7.8 mph 65% 0 in
16:30 43.5 °F 33.8 °F 29.9 in SW 7.8 mph 7.8 mph 67% 0 in
16:35 43.2 °F 33.8 °F 29.9 in SW 7.8 mph 7.8 mph 68% 0 in
16:40 43 °F 32 °F 29.9 in SW 7.8 mph 7.8 mph 66% 0 in
16:45 42.8 °F 33.8 °F 29.9 in SW 7.8 mph 7.8 mph 67% 0 in
16:50 42.4 °F 33.8 °F 29.9 in SW 7.8 mph 7.8 mph 68% 0 in
16:55 42.4 °F 33.8 °F 29.9 in SW 7.8 mph 7.8 mph 69% 0 in
17:00 42.3 °F 33.8 °F 29.9 in SW 7.8 mph 7.8 mph 70% 0 in
17:05 42.1 °F 33.8 °F 29.9 in SW 7.8 mph 7.8 mph 71% 0 in
17:10 41.9 °F 33.8 °F 29.9 in SW 7.8 mph 7.8 mph 71% 0 in
17:15 41.7 °F 33.8 °F 29.9 in SW 7.8 mph 7.8 mph 71% 0 in
17:20 41.7 °F 33.8 °F 29.9 in SW 7.8 mph 7.8 mph 71% 0 in
17:25 41.5 °F 33.8 °F 29.9 in SW 7.8 mph 7.8 mph 72% 0 in
17:30 41.4 °F 33.8 °F 29.9 in SW 7.8 mph 7.8 mph 72% 0 in
17:35 41.2 °F 33.8 °F 29.9 in SW 7.8 mph 7.8 mph 72% 0 in
17:40 41.2 °F 33.8 °F 29.9 in SW 7.8 mph 7.8 mph 72% 0 in
17:45 41.2 °F 33.8 °F 29.9 in SW 7.8 mph 7.8 mph 72% 0 in
17:51 41 °F 33.8 °F 29.9 in SW 7.8 mph 7.8 mph 73% 0 in
17:56 41 °F 33.8 °F 29.9 in SW 7.8 mph 7.8 mph 73% 0 in
18:01 40.8 °F 33.8 °F 29.9 in SW 7.8 mph 7.8 mph 74% 0 in
18:06 40.6 °F 33.8 °F 29.9 in SW 7.8 mph 7.8 mph 75% 0 in
18:11 40.5 °F 33.8 °F 29.9 in SW 7.8 mph 7.8 mph 75% 0 in
18:16 40.5 °F 33.8 °F 29.9 in SW 7.8 mph 7.8 mph 75% 0 in
18:21 40.3 °F 33.8 °F 29.9 in SW 7.8 mph 7.8 mph 75% 0 in
18:26 40.3 °F 33.8 °F 29.9 in SW 7.8 mph 7.8 mph 76% 0 in
18:31 40.1 °F 33.8 °F 29.9 in SW 7.8 mph 7.8 mph 76% 0 in
18:36 39.9 °F 33.8 °F 29.9 in SW 7.8 mph 7.8 mph 76% 0 in
18:41 39.9 °F 33.8 °F 29.9 in SW 7.8 mph 7.8 mph 76% 0 in
18:46 39.9 °F 33.8 °F 29.9 in SW 7.8 mph 7.8 mph 76% 0 in
18:51 39.7 °F 33.8 °F 29.9 in SW 7.8 mph 7.8 mph 76% 0 in
18:56 39.7 °F 33.8 °F 29.9 in SW 7.8 mph 7.8 mph 76% 0 in
19:01 39.7 °F 33.8 °F 29.9 in SW 7.8 mph 7.8 mph 76% 0 in
19:06 39.6 °F 33.8 °F 29.9 in SW 7.8 mph 7.8 mph 77% 0 in
19:11 39.4 °F 33.8 °F 29.9 in SW 7.8 mph 7.8 mph 77% 0 in
19:16 39.4 °F 33.8 °F 29.9 in SW 7.8 mph 7.8 mph 77% 0 in
19:21 39.2 °F 33.8 °F 29.9 in SW 7.8 mph 7.8 mph 78% 0 in
19:26 39 °F 33.8 °F 29.9 in SW 7.8 mph 7.8 mph 80% 0 in
19:31 38.8 °F 33.8 °F 29.8 in SW 7.8 mph 7.8 mph 80% 0 in
19:36 38.8 °F 33.8 °F 29.8 in SW 7.8 mph 7.8 mph 80% 0 in
19:41 38.8 °F 33.8 °F 29.8 in SW 7.8 mph 7.8 mph 80% 0 in
19:46 38.8 °F 33.8 °F 29.8 in SW 7.8 mph 7.8 mph 80% 0 in
19:51 38.8 °F 33.8 °F 29.8 in SW 7.8 mph 7.8 mph 81% 0 in
19:56 38.8 °F 33.8 °F 29.8 in SW 7.8 mph 7.8 mph 82% 0 in
20:01 38.8 °F 33.8 °F 29.8 in SW 7.8 mph 7.8 mph 83% 0 in
20:06 38.8 °F 33.8 °F 29.8 in SW 7.8 mph 7.8 mph 84% 0 in
20:11 38.8 °F 33.8 °F 29.8 in SW 7.8 mph 7.8 mph 84% 0 in
20:16 38.8 °F 35.6 °F 29.8 in SW 7.8 mph 7.8 mph 85% 0 in
20:22 38.8 °F 35.6 °F 29.8 in SW 7.8 mph 7.8 mph 85% 0 in
20:27 38.8 °F 35.6 °F 29.8 in SW 7.8 mph 7.8 mph 85% 0 in
20:32 38.8 °F 35.6 °F 29.8 in SW 7.8 mph 7.8 mph 85% 0 in
20:37 38.7 °F 35.6 °F 29.8 in SW 7.8 mph 7.8 mph 85% 0 in
20:42 38.7 °F 35.6 °F 29.8 in SW 7.8 mph 7.8 mph 86% 0 in
20:47 38.5 °F 35.6 °F 29.8 in SW 7.8 mph 7.8 mph 86% 0 in
20:52 38.5 °F 35.6 °F 29.8 in SW 7.8 mph 7.8 mph 87% 0 in
20:57 38.3 °F 35.6 °F 29.8 in SW 7.8 mph 7.8 mph 88% 0 in
21:02 38.3 °F 35.6 °F 29.8 in SW 7.8 mph 7.8 mph 89% 0 in
21:07 38.1 °F 35.6 °F 29.8 in SW 7.8 mph 7.8 mph 90% 0.01 in
21:12 38.1 °F 35.6 °F 29.8 in SSW 10.5 mph 10.5 mph 91% 0.01 in
21:17 37.9 °F 35.6 °F 29.8 in SSW 12.1 mph 12.1 mph 92% 0.01 in
21:22 37.9 °F 37.4 °F 29.8 in SSW 12.1 mph 12.1 mph 93% 0.02 in
21:27 37.9 °F 37.4 °F 29.8 in SW 11 mph 12.1 mph 93% 0.02 in
21:32 37.9 °F 37.4 °F 29.8 in SSW 8.1 mph 12.1 mph 94% 0.02 in
21:37 37.8 °F 37.4 °F 29.8 in South 6.5 mph 12.8 mph 94% 0.03 in
21:42 37.9 °F 37.4 °F 29.8 in South 11.4 mph 12.8 mph 95% 0.03 in
21:47 37.9 °F 37.4 °F 29.7 in South 11.4 mph 11.4 mph 95% 0.03 in
21:52 37.9 °F 37.4 °F 29.7 in South 11.4 mph 11.4 mph 96% 0.05 in
21:57 37.8 °F 37.4 °F 29.7 in South 11.4 mph 11.4 mph 96% 0.06 in
22:02 37.8 °F 37.4 °F 29.7 in South 11.4 mph 11.4 mph 97% 0.06 in
22:07 37.8 °F 37.4 °F 29.7 in South 11.4 mph 11.4 mph 97% 0.05 in
22:13 37.8 °F 37.4 °F 29.7 in South 11.4 mph 11.4 mph 97% 0.06 in
22:18 37.8 °F 37.4 °F 29.7 in South 11.4 mph 11.4 mph 97% 0.06 in
22:23 37.8 °F 37.4 °F 29.7 in SW 13.2 mph 13.2 mph 98% 0.05 in
22:28 37.8 °F 37.4 °F 29.7 in SSW 17.7 mph 17.7 mph 98% 0.05 in
22:33 37.6 °F 37.4 °F 29.7 in SSW 12.1 mph 17.7 mph 98% 0.03 in
22:34 37.6 °F 37.4 °F 29.7 in SSW 17.7 mph 17.7 mph 98% 0.03 in
22:39 37.6 °F 37.4 °F 29.7 in SSW 13.6 mph 17.7 mph 98% 0.03 in
22:44 37.6 °F 37.4 °F 29.7 in South 9.8 mph 19.9 mph 98% 0.05 in
22:49 37.6 °F 37.4 °F 29.7 in South 9.8 mph 19.9 mph 98% 0.04 in
22:54 37.6 °F 37.4 °F 29.7 in South 9.8 mph 19.9 mph 98% 0.04 in
22:59 37.6 °F 37.4 °F 29.7 in South 9.8 mph 9.8 mph 98% 0.03 in
23:04 37.6 °F 37.4 °F 29.7 in South 9.8 mph 9.8 mph 98% 0.03 in
23:09 37.6 °F 37.4 °F 29.7 in South 9.8 mph 9.8 mph 98% 0.03 in
23:14 37.6 °F 37.4 °F 29.7 in South 9.8 mph 9.8 mph 98% 0.01 in
23:19 37.6 °F 37.4 °F 29.7 in South 9.8 mph 9.8 mph 98% 0.01 in
23:24 37.6 °F 37.4 °F 29.7 in South 9.8 mph 9.8 mph 98% 0.01 in
23:29 37.6 °F 37.4 °F 29.7 in South 9.8 mph 9.8 mph 98% 0.01 in
23:34 37.6 °F 37.4 °F 29.7 in South 9.8 mph 9.8 mph 98% 0.01 in
23:39 37.8 °F 37.4 °F 29.7 in South 9.8 mph 9.8 mph 98% 0.01 in
23:44 37.8 °F 37.4 °F 29.7 in South 9.8 mph 9.8 mph 98% 0 in
23:49 37.8 °F 37.4 °F 29.7 in South 9.8 mph 9.8 mph 98% 0 in
23:54 37.8 °F 37.4 °F 29.7 in South 9.8 mph 9.8 mph 98% 0 in
Données Historique de Météo Turbie

Mise a jour : 24/05/2018 10:22:14
Généré par Cumulus 1.9.4 (1099)